Tracking 30923 objects as of 1-Jul-2025
HD Live streaming from Space Station
objects crossing your sky now

STARLINK-1513

Track STARLINK-1513 now!
10-day predictions
STARLINK-1513 is classified as:


NORAD ID: 45786
Int'l Code: 2020-038BJ
Perigee: 553.6 km
Apogee: 555.1 km
Inclination: 53.1 °
Period: 95.6 minutes
Semi major axis: 6925 km
RCS: Unknown
Launch date: June 13, 2020
Source: United States (US)
Launch site: AIR FORCE EASTERN TEST RANGE (AFETR)
Your satellite tracking list
Your tracking list is empty




NASA's NSSDC Master Catalog

Two Line Element Set (TLE):
1 45786U 20038BJ  25181.66318576  .00001464  00000-0  11716-3 0  9996
2 45786  53.0546 248.0093 0001052  82.5140 277.5968 15.06399368278774
Source of the keplerian elements: AFSPC